Regional Weather Roundup
Issued by NWS

Home | Current Version | Previous Version | Graphics & Text | Print | Product List | Glossary On
Versions: 1 2 3 4 5 6 7 8 9 10 11 12 13 14 15 16 17 18 19 20 21 22 23 24 25 26 27 28 29 30 31 32 33 34 35 36 37 38 39 40 41 42 43 44 45 46 47 48 49 50
000
ASUS45 KBOI 011410
RWRID
WEATHER ROUNDUP FOR IDAHO
NATIONAL WEATHER SERVICE BOISE ID
800 AM MDT FRI AUG 01 2014

NOTE: "FAIR" INDICATES FEW OR NO CLOUDS BELOW 12000 FEET
WITH NO SIGNIFICANT WEATHER AND/OR OBSTRUCTIONS TO VISIBILITY

IDZ012-014-011500-
SOUTHWEST IDAHO


CITY           SKY/WX    TMP DP  RH WIND       PRES   REMARKS
BOISE          SUNNY     71  49  45 SE7       30.06F
CALDWELL       SUNNY     64  46  52 SE3       30.08S
MOUNTAIN HOME  MOSUNNY   68  49  51 SW3       30.09S
$$

IDZ016-017-011500-
SOUTHCENTRAL IDAHO


CITY           SKY/WX    TMP DP  RH WIND       PRES   REMARKS
BURLEY         MOSUNNY   60  49  66 SE6       30.17R
JEROME         SUNNY     66  50  56 CALM      30.17R
TWIN FALLS     SUNNY     66  45  46 S9        30.17R
$$

IDZ019>023-011500-
SOUTHEAST IDAHO


CITY           SKY/WX    TMP DP  RH WIND       PRES   REMARKS
IDAHO FALLS    MOSUNNY   59  49  69 N5        30.22R
POCATELLO      SUNNY     62  49  62 CALM      30.20R
REXBURG        SUNNY     55  46  71 CALM      30.23R
$$

IDZ006-010-011-018-031-032-011500-
CENTRAL IDAHO MOUNTAINS


CITY           SKY/WX    TMP DP  RH WIND       PRES   REMARKS
MCCALL         MOSUNNY   56  47  71 CALM      30.22R
HAILEY         MOSUNNY   61  48  63 NW12      30.27R
STANLEY          N/A     49  44  83 NE3       30.37R
SALMON         CLOUDY    61  48  63 CALM      30.20S
CHALLIS        PTSUNNY   63  45  51 CALM      30.26R
$$

IDZ002-004-006-007-026-011500-
NORTHERN IDAHO


CITY           SKY/WX    TMP DP  RH WIND       PRES   REMARKS
LEWISTON       MOSUNNY  N/A N/A N/A SE3       30.00R
LOWELL           N/A     60  54  80 CALM      30.09R
COEUR D`ALENE  PTSUNNY   64  50  59 E10       30.06R
MULLAN PASS    PTSUNNY   68  31  25 CALM      30.28S
$$


USA.gov is the U.S. government's official web portal to all federal, state and local government web resources and services.